Belmar, NJ

5:02 PM EST on February 27, 2017 (GMT -0500)
Allaire

Weather History for KBLM - December, 2012

Change the Weather History Date:

Tuesday, December 18, 2012

  Actual Average Record
Temperature  
Mean Temperature 50 °F -  
Max Temperature 57 °F 42 °F 66 °F (2006)
Min Temperature 41 °F 28 °F 15 °F (2002)
Degree Days  
Heating Degree Days 16    
Moisture  
Dew Point 45 °F    
Average Humidity 80    
Maximum Humidity 100    
Minimum Humidity 59    
Precipitation  
Precipitation 0.34 in - - ()
Sea Level Pressure  
Sea Level Pressure 29.54 in    
Wind  
Wind Speed 10 mph (West)    
Max Wind Speed 22 mph    
Max Gust Speed 32 mph    
Visibility 9 miles    
Events      
Averages and records for this station are not official NWS values.
T = Trace of Precipitation, MM = Missing Value Source: NWS Daily Summary

Daily Weather History Graph

Daily Weather History Graph

Search for Another Location

Airport or City:

Trip Planner

Search our weather history database for the weather conditions in past years. The results will help you decide how hot, cold, wet, or windy it might be!

Date:

Astronomy

Dec. 18, 2012 Rise Set
Actual Time 7:13 AM EST 4:32 PM EST
Civil Twilight 6:43 AM EST 5:03 PM EST
Nautical Twilight 6:09 AM EST 5:37 PM EST
Astronomical Twilight 5:36 AM EST 6:10 PM EST
Moon 10:52 AM EST (12/18) 10:56 PM EST (12/18)
Length of Visible Light 10h 20m
Length of Day
9h 18m
Waxing Crescent, 34% of the Moon is Illuminated
Dec 18
Waxing Crescent
Dec 20
First Quarter
Dec 28
Full
Jan 4
Last Quarter
Jan 11
New

Hourly Weather History & Observations

Time (EST) Temp. Windchill Dew Point Humidity Pressure Visibility Wind Dir Wind Speed Gust Speed Precip Events Conditions
12:15 AM 51.8 °F - 51.8 °F 100% 29.60 in 4.0 mi SSE 4.6 mph - N/A   Overcast
12:35 AM 51.8 °F - 51.8 °F 100% 29.57 in 4.0 mi ESE 5.8 mph - N/A   Overcast
12:55 AM 51.8 °F - 50.0 °F 94% 29.57 in 6.0 mi SSE 4.6 mph - N/A   Overcast
1:15 AM 53.6 °F - 51.8 °F 94% 29.55 in 1.0 mi SSE 6.9 mph - N/A   Overcast
1:35 AM 53.6 °F - 53.6 °F 100% 29.55 in 0.8 mi SSE 6.9 mph - 0.02 in   Overcast
1:55 AM 53.6 °F - 53.6 °F 100% 29.53 in 9.0 mi SSE 5.8 mph - 0.09 in   Overcast
2:15 AM 53.6 °F - 53.6 °F 100% 29.53 in 9.0 mi South 10.4 mph - 0.06 in   Overcast
2:35 AM 53.6 °F - 53.6 °F 100% 29.52 in 6.0 mi South 8.1 mph - 0.20 in   Overcast
2:55 AM 53.6 °F - 53.6 °F 100% 29.51 in 7.0 mi South 11.5 mph 17.3 mph 0.21 in   Overcast
3:15 AM 53.6 °F - 51.8 °F 94% 29.51 in 10.0 mi SSW 6.9 mph - N/A   Overcast
3:35 AM 55.4 °F - 53.6 °F 94% 29.50 in 5.0 mi SW 8.1 mph - N/A   Overcast
3:55 AM 55.4 °F - 53.6 °F 94% 29.50 in 3.0 mi SW 9.2 mph - N/A   Overcast
4:15 AM 55.4 °F - 53.6 °F 94% 29.49 in 10.0 mi WSW 8.1 mph - N/A   Overcast
4:35 AM 55.4 °F - 53.6 °F 94% 29.49 in 10.0 mi WSW 9.2 mph - N/A   Overcast
4:55 AM 53.6 °F - 53.6 °F 100% 29.51 in 5.0 mi West 9.2 mph - N/A   Overcast
5:15 AM 53.6 °F - 51.8 °F 94% 29.51 in 10.0 mi West 10.4 mph - N/A   Overcast
5:35 AM 53.6 °F - 51.8 °F 94% 29.51 in 10.0 mi West 8.1 mph - N/A   Overcast
5:55 AM 53.6 °F - 51.8 °F 94% 29.51 in 10.0 mi West 6.9 mph - N/A   Overcast
6:15 AM 53.6 °F - 51.8 °F 94% 29.52 in 10.0 mi West 6.9 mph - N/A   Overcast
6:35 AM 53.6 °F - 51.8 °F 94% 29.53 in 10.0 mi WSW 10.4 mph - N/A   Overcast
6:55 AM 53.6 °F - 51.8 °F 94% 29.52 in 10.0 mi West 8.1 mph - N/A   Overcast
7:15 AM 51.8 °F - 50.0 °F 94% 29.53 in 10.0 mi West 9.2 mph - N/A   Overcast
7:35 AM 51.8 °F - 48.2 °F 88% 29.53 in 10.0 mi West 10.4 mph 19.6 mph N/A   Overcast
7:55 AM 51.8 °F - 48.2 °F 88% 29.53 in 10.0 mi West 9.2 mph - N/A   Mostly Cloudy
8:15 AM 51.8 °F - 48.2 °F 88% 29.53 in 10.0 mi WSW 9.2 mph - N/A   Mostly Cloudy
8:35 AM 51.8 °F - 48.2 °F 88% 29.54 in 10.0 mi WSW 11.5 mph - N/A   Overcast
8:55 AM 51.8 °F - 48.2 °F 88% 29.54 in 10.0 mi WSW 11.5 mph 17.3 mph N/A   Mostly Cloudy
9:15 AM 53.6 °F - 48.2 °F 82% 29.54 in 10.0 mi WSW 11.5 mph - N/A   Partly Cloudy
9:35 AM 53.6 °F - 48.2 °F 82% 29.54 in 10.0 mi West 11.5 mph 21.9 mph N/A   Mostly Cloudy
9:55 AM 53.6 °F - 48.2 °F 82% 29.55 in 10.0 mi West 16.1 mph 21.9 mph N/A   Overcast
10:15 AM 53.6 °F - 48.2 °F 82% 29.54 in 10.0 mi West 10.4 mph - N/A   Mostly Cloudy
10:35 AM 55.4 °F - 48.2 °F 77% 29.53 in 10.0 mi West 12.7 mph 16.1 mph N/A   Partly Cloudy
10:55 AM 55.4 °F - 46.4 °F 72% 29.52 in 10.0 mi West 11.5 mph - N/A   Scattered Clouds
11:15 AM 55.4 °F - 48.2 °F 77% 29.52 in 10.0 mi West 8.1 mph - N/A   Clear
11:35 AM 57.2 °F - 46.4 °F 67% 29.51 in 10.0 mi West 13.8 mph - N/A   Partly Cloudy
11:55 AM 55.4 °F - 46.4 °F 72% 29.51 in 10.0 mi West 11.5 mph 19.6 mph N/A   Partly Cloudy
12:15 PM 55.4 °F - 46.4 °F 72% 29.51 in 10.0 mi West 12.7 mph - N/A   Scattered Clouds
12:35 PM 55.4 °F - 46.4 °F 72% 29.49 in 10.0 mi West 9.2 mph - N/A   Partly Cloudy
12:55 PM 55.4 °F - 44.6 °F 67% 29.49 in 10.0 mi WSW 10.4 mph - N/A   Clear
1:15 PM 57.2 °F - 44.6 °F 63% 29.48 in 10.0 mi West 10.4 mph - N/A   Partly Cloudy
1:35 PM 57.2 °F - 44.6 °F 63% 29.48 in 10.0 mi West 15.0 mph 19.6 mph N/A   Mostly Cloudy
1:55 PM 57.2 °F - 44.6 °F 63% 29.48 in 10.0 mi WSW 13.8 mph 17.3 mph N/A   Mostly Cloudy
2:15 PM 57.2 °F - 44.6 °F 63% 29.47 in 10.0 mi West 12.7 mph 16.1 mph N/A   Mostly Cloudy
2:35 PM 57.2 °F - 42.8 °F 59% 29.48 in 10.0 mi West 9.2 mph - N/A   Scattered Clouds
2:55 PM 57.2 °F - 42.8 °F 59% 29.48 in 10.0 mi West 16.1 mph 19.6 mph N/A   Scattered Clouds
3:15 PM 51.8 °F - 44.6 °F 76% 29.49 in 10.0 mi West 8.1 mph - 0.04 in   Mostly Cloudy
3:35 PM 51.8 °F - 46.4 °F 82% 29.49 in 10.0 mi West 8.1 mph - 0.04 in   Mostly Cloudy
3:55 PM 50.0 °F - 44.6 °F 82% 29.51 in 10.0 mi West 11.5 mph 24.2 mph 0.04 in   Mostly Cloudy
4:15 PM 48.2 °F - 42.8 °F 82% 29.51 in 10.0 mi West 12.7 mph 17.3 mph N/A   Mostly Cloudy
4:35 PM 48.2 °F - 42.8 °F 82% 29.52 in 10.0 mi West 17.3 mph 23.0 mph N/A   Mostly Cloudy
4:55 PM 48.2 °F - 42.8 °F 82% 29.52 in 10.0 mi West 11.5 mph 19.6 mph N/A   Mostly Cloudy
5:15 PM 48.2 °F - 42.8 °F 82% 29.52 in 10.0 mi West 13.8 mph 20.7 mph N/A   Clear
5:35 PM 48.2 °F - 39.2 °F 71% 29.53 in 10.0 mi West 16.1 mph 19.6 mph N/A   Partly Cloudy
5:55 PM 48.2 °F - 39.2 °F 71% 29.54 in 10.0 mi West 12.7 mph 26.5 mph N/A   Mostly Cloudy
6:15 PM 48.2 °F - 37.4 °F 66% 29.55 in 10.0 mi West 21.9 mph 28.8 mph N/A   Overcast
6:35 PM 46.4 °F 39.8 °F 37.4 °F 71% 29.56 in 10.0 mi West 16.1 mph 24.2 mph N/A   Overcast
6:55 PM 46.4 °F 39.8 °F 37.4 °F 71% 29.56 in 10.0 mi West 16.1 mph 23.0 mph N/A   Overcast
7:15 PM 46.4 °F 39.8 °F 37.4 °F 71% 29.57 in 10.0 mi WNW 16.1 mph 21.9 mph N/A   Overcast
7:35 PM 46.4 °F 39.2 °F 35.6 °F 66% 29.58 in 10.0 mi WNW 18.4 mph 25.3 mph N/A   Overcast
7:55 PM 46.4 °F 38.7 °F 35.6 °F 66% 29.58 in 10.0 mi WNW 20.7 mph 29.9 mph N/A   Mostly Cloudy
8:15 PM 44.6 °F 36.1 °F 35.6 °F 71% 29.60 in 10.0 mi WNW 21.9 mph 32.2 mph N/A   Partly Cloudy
8:35 PM 44.6 °F 37.8 °F 35.6 °F 71% 29.61 in 10.0 mi WNW 15.0 mph 24.2 mph N/A   Scattered Clouds
8:55 PM 44.6 °F 36.6 °F 35.6 °F 71% 29.62 in 10.0 mi WNW 19.6 mph 28.8 mph N/A   Scattered Clouds
9:15 PM 42.8 °F 34.8 °F 35.6 °F 76% 29.62 in 10.0 mi WNW 17.3 mph 24.2 mph N/A   Clear
9:35 PM 42.8 °F 35.8 °F 35.6 °F 76% 29.63 in 10.0 mi West 13.8 mph 20.7 mph N/A   Clear
9:55 PM 42.8 °F 35.4 °F 33.8 °F 70% 29.63 in 10.0 mi WNW 15.0 mph 23.0 mph N/A   Clear
10:15 PM 42.8 °F 35.8 °F 33.8 °F 70% 29.64 in 10.0 mi West 13.8 mph 23.0 mph N/A   Clear
10:35 PM 42.8 °F 35.1 °F 33.8 °F 70% 29.65 in 10.0 mi WNW 16.1 mph 26.5 mph N/A   Clear
10:55 PM 42.8 °F 36.6 °F 32.0 °F 66% 29.65 in 10.0 mi WNW 11.5 mph 21.9 mph N/A   Clear
11:15 PM 42.8 °F 35.8 °F 32.0 °F 66% 29.65 in 10.0 mi WNW 13.8 mph 20.7 mph N/A   Clear
11:35 PM 42.8 °F 35.4 °F 32.0 °F 66% 29.65 in 10.0 mi West 15.0 mph 19.6 mph N/A   Clear
11:55 PM 41.0 °F 34.7 °F 32.0 °F 70% 29.65 in 10.0 mi West 10.4 mph 16.1 mph N/A   Clear